Regional Weather Roundup
Issued by NWS

Home | Current Version | Previous Version | Text Only | Print | Product List | Glossary On
Versions: 1 2 3 4 5 6 7 8 9 10 11 12 13 14 15 16 17 18 19 20 21 22 23 24 25 26 27 28 29 30 31 32 33 34 35 36 37 38 39 40 41 42 43 44 45 46 47 48 49 50
000
ASUS43 KDTX 251310
RWRMI
MICHIGAN HOURLY REGIONAL WEATHER ROUNDUP
NATIONAL WEATHER SERVICE DETROIT/PONTIAC MI
900 AM EDT SAT MAR 25 2017

NOTE: "FAIR" INDICATES FEW OR NO CLOUDS BELOW 12,000 FEET WITH NO
SIGNIFICANT WEATHER AND/OR OBSTRUCTION TO VISIBILITY.

MIZ047>049-052>055-059>063-066>070-074>076-081>083-251400-
SOUTHEAST LOWER MICHIGAN

CITY           SKY/WX    TMP DP  RH WIND       PRES   REMARKS
ADRIAN         CLOUDY    46  40  79 NE9       30.16R
ALMA           LGT RAIN  36  35  97 NE16G23   30.22R WCI  26
ANN ARBOR      CLOUDY    43  40  89 NE8       30.16R
BAD AXE        LGT SNOW  34  33  96 NE13      30.25R WCI  25
CARO           LGT RAIN  35  35  98 NE6       30.22R WCI  30
DETROIT CITY   LGT RAIN  40  39  97 N9        30.19R WCI  34
DETROIT        CLOUDY    43  39  86 NE12      30.18R FOG
FLINT          LGT RAIN  37  36  96 NE9       30.22R FOG     WCI  30
GROSSE ILE     CLOUDY    42  39  90 NE7       30.16R FOG
HILLSDALE      CLOUDY    45  41  87 NE6       30.13R
HOWELL         RAIN      38  37  94 NE6       30.17R WCI  34

CITY           SKY/WX    TMP DP  RH WIND       PRES   REMARKS
JACKSON        CLOUDY    41  39  93 NE9       30.14R
LAMBERTVILLE   PTSUNNY   46  41  83 E3        30.15R HAZE
LANSING        RAIN      37  34  89 NE8       30.20R FOG     WCI  31
LAPEER         LGT RAIN  36  36  97 NE7       30.20R WCI  31
MASON          LGT RAIN  38  38  97 N7        30.19R WCI  33
MONROE         CLOUDY    44  41  90 NE8       30.14R FOG
MT. CLEMENS    LGT RAIN  39  39 100 NE3       30.16S FOG
PONTIAC        RAIN      38  38 100 NE10      30.16R FOG     WCI  31
PORT HOPE        N/A     34  33  96 NE17      30.25R WCI  23
TRI CITIES     LGT RAIN  35  35 100 NE18      30.24R FOG     WCI  24
MIDLAND        DRIZZLE   36  34  91 NE8       30.25R WCI  30
TROY           LGT RAIN  40  37  91 NE8       30.20R WCI  34
SAGINAW HB     LGT RAIN  36  34  93 NE14      30.23R WCI  27
$$
MIZ043>046-050>051-056>058-064>065-071>073-077>080-251400-
SOUTHWEST LOWER MICHIGAN

CITY           SKY/WX    TMP DP  RH WIND       PRES   REMARKS
BATTLE CREEK   LGT RAIN  42  41  96 E9        30.13R
BENTON HARBOR  CLOUDY    48  45  89 E7        30.07R FOG
BIG RAPIDS     CLOUDY    35  32  89 E9        30.21R WCI  28
COLDWATER      CLOUDY    46  44  90 E8        30.11S
FREMONT        CLOUDY    37  35  92 E16       30.17R WCI  27
HOLLAND        LGT RAIN  40  37  89 E10G21    30.12R WCI  33
GRAND RAPIDS   LGT RAIN  37  37 100 NE21      30.15R WCI  26
IONIA          LGT RAIN  35  34  96 NE14      30.19R WCI  26
KALAMAZOO      CLOUDY    44  40  85 E8        30.12R FOG
LUDINGTON      CLOUDY    37  35  92 E12       30.19R WCI  29
MARSHALL       LGT RAIN  41  40  98 E6        30.13R
MOUNT PLEASANT LGT RAIN  36  33  92 NE7       30.23R WCI  30
MUSKEGON       CLOUDY    40  36  86 NE13G24   30.15R WCI  32
SOUTH HAVEN    CLOUDY    43  42  97 E8G17     30.08S
$$
MIZ016>042-251400-
NORTHERN LOWER MICHIGAN

CITY           SKY/WX    TMP DP  RH WIND       PRES   REMARKS
ALPENA         CLOUDY    34  32  92 NE12      30.33R WCI  25
BEAVER ISLAND  CLOUDY    33  31  94 E9        30.33R WCI  25
BELLAIRE       CLOUDY    36  32  85 E8        30.28R WCI  29
CADILLAC       CLOUDY    33  32  96 E17       30.20S WCI  22
CHARLEVOIX     CLOUDY    35  33  91 E13G18    30.33R WCI  26
FRANKFORT      CLOUDY    36  33  87 NE5       30.23R WCI  32
GAYLORD        CLOUDY    34  31  88 E13G22    30.27R WCI  25
GRAYLING       CLOUDY    32  32 100 E14G20    30.27R WCI  22
HARBOR SPRINGS CLOUDY    33  31  93 NE14      30.31R WCI  23
HOUGHTON LAKE  CLOUDY    34  31  88 E13       30.24R WCI  25
MANISTEE       CLOUDY    37  34  89 E12       30.20S WCI  29
OSCODA         CLOUDY    35  33  93 NE15G24   30.29R WCI  25
PELLSTON       CLOUDY    33  28  81 E10       30.34R WCI  25
ROGERS CITY    CLOUDY    33  30  88 E12G17      N/A  WCI  24
TRAVERSE CITY  CLOUDY    37  33  85 E6        30.25R WCI  32
$$
MIZ007>008-015-251400-
EASTERN UPPER MICHIGAN

CITY           SKY/WX    TMP DP  RH WIND       PRES   REMARKS
KINROSS        CLOUDY    30  26  85 E9        30.36R WCI  22
MACKINAC ISLAN CLOUDY    31  31 100 E9G17     30.35R WCI  23
NEWBERRY       CLOUDY    30  29  96 NE7       30.34R WCI  23
S. S. MARIE    CLOUDY    30  22  72 NE9       30.36R WCI  22
MUNISING         N/A     33  31  92 NE6       30.34R WCI  28
$$
MIZ004>006-011>014-085-251400-
CENTRAL UPPER MICHIGAN

CITY           SKY/WX    TMP DP  RH WIND       PRES   REMARKS
MANISTIQUE     CLOUDY    32  32 100 NE7       30.33R WCI  26
ESCANABA       CLOUDY    34  31  88 NE8       30.31R WCI  27
MENOMINEE        N/A    N/A N/A N/A MISG        N/A
SAWYER-GWINN   CLOUDY    30  28  93 NE6       30.31R WCI  24
$$
MIZ001>003-009>011-084-251400-
WESTERN UPPER MICHIGAN

CITY           SKY/WX    TMP DP  RH WIND       PRES   REMARKS
IRON MOUNTAIN  CLOUDY    33  28  81 NE7       30.27R WCI  27
HOUGHTON       CLOUDY    30  23  75 E10       30.34R WCI  21
COPPER HARBOR    N/A     29  23  78 SE8       30.37R WCI  21
IRONWOOD       CLOUDY    32  30  92 NE8       30.28R WCI  25
$$

ABBREVIATIONS USED IN REMARKS
   TC - TEMPERATURE IN CELSIUS
  WCI - WIND CHILL INDEX
   HX - HEAT INDEX
  VSB - VISIBILITY





USA.gov is the U.S. government's official web portal to all federal, state and local government web resources and services.